Find Starlink 5232

NORAD ID: 55675 Int'l Des: 2023-021 Owner: SPXS Country: US Constellation: starlink operational
LEOCIRCULAR

Live Position

Loading 3D Globe...

About Starlink 5232

Description loading...

Upcoming Passes

Passes for default location (London). Set your location on the main map for personalized predictions.

Altitude History

Loading altitude history...

Two-Line Element Set

1 55675U 23021AZ 26106.30456205 .00000520 00000-0 51362-4 0 9994
2 55675 69.9994 69.4254 0003228 268.8116 91.2673 14.98330650174923
Epoch: Apr 16, 2026 • Age: 20 hours

Current Status

Altitude 585.6 km
Velocity 7.57 km/s
Sub-Earth Point 68.92°N, 111.53°W
Launch Date Feb 17, 2023
Age 3.1 years
Type internet

Technical Details

Classification Payload
Mass 305.00 kg
Dry Mass 290.00 kg
Total Mass 305.00 kg
Length 0.20 m
Diameter 2.80 m
Span 9.00 m
Shape Box + pan
Manufacturer SPXS
Bus Type Starlink
Phase Status In Orbit
Owner/State SPXS/US

Most Searched